Regional Weather Roundup
Issued by NWS

Home | Current Version | Previous Version | Graphics & Text | Print | Product List | Glossary Off
Versions: 1 2 3 4 5 6 7 8 9 10 11 12 13 14 15 16 17 18 19 20 21 22 23 24 25 26 27 28 29 30 31 32 33 34 35 36 37 38 39 40 41 42 43 44 45 46 47 48 49 50

000
ASUS43 KTOP 310359
RWRKS

WEATHER ROUNDUP FOR KANSAS
NATIONAL WEATHER SERVICE GOODLAND KS
1100 PM CDT WED JUL 30 2014

NOTE:  "FAIR" INDICATES FEW OR NO CLOUDS BELOW 12,000 FEET WITH NO
SIGNIFICANT WEATHER AND/OR OBSTRUCTIONS TO VISIBILITY.

KSZ001>006-013>018-027>032-041>047-310500-
NORTHWEST KANSAS

CITY           SKY/WX    TMP DP  RH WIND       PRES   REMARKS
GOODLAND       MOCLDY    62  59  90 W7        30.26R
HAYS           PTCLDY    63  55  77 S6        30.17S
HILL CITY      MOCLDY    66  54  65 CALM      30.18R
RUSSELL        CLEAR     63  60  90 S6        30.15R
$$

KSZ061>065-074>080-084>089-310500-
SOUTHWEST KANSAS

CITY           SKY/WX    TMP DP  RH WIND       PRES   REMARKS
DODGE CITY     CLEAR     61  55  81 CALM      30.22R
ELKHART          N/A     61  59  94 NE3         N/A
GARDEN CITY    CLEAR     63  59  87 SE5       30.21F
GREAT BEND     CLEAR     63  57  82 SW3       30.16S
LIBERAL        PTCLDY    63  55  77 NE6       30.23S
$$

KSZ066>073-081>083-090>101-310500-
SOUTHEAST KANSAS

CITY           SKY/WX    TMP DP  RH WIND       PRES   REMARKS
CHANUTE        PTCLDY    64  63  96 N3        30.11S FOG
COFFEYVILLE    CLOUDY    67  66  97 N5        30.08S
HUTCHINSON     CLEAR     59  57  93 CALM      30.14S
NEWTON         CLEAR     63  57  82 N3        30.17R
PARSONS        CLOUDY    67  64  90 CALM      30.11R
WICHITA INTL   PTCLDY    66  63  90 N6        30.13R
WICHITA JABRA  PTCLDY    63  63 100 NW5       30.13R
WINFIELD       CLOUDY    67  66  97 N7        30.12R
$$

KSZ007>012-019>026-033>040-048>060-102>105-310500-
NORTHEAST KANSAS

CITY           SKY/WX    TMP DP  RH WIND       PRES   REMARKS
CONCORDIA      PTCLDY    66  56  70 CALM      30.14R
EMPORIA        CLEAR     62  61  96 NW3       30.12R
LAWRENCE       PTCLDY    63  59  87 CALM      30.10R
MANHATTAN      CLEAR     62  58  86 CALM      30.12R
OLATHE IND     PTCLDY    68  61  78 W5        30.11R
OLATHE EXE     PTCLDY    67  61  81 CALM      30.10R
SALINA         CLEAR     66  57  72 SW8       30.14R
TOPEKA BILLARD CLEAR     65  57  75 CALM      30.11R
TOPEKA FORBES  CLEAR     62  56  80 CALM      30.11R
$$


USA.gov is the U.S. government's official web portal to all federal, state and local government web resources and services.